This is the latest recevied weather packets stored in our database for station/object IZ1OSY-3. If no packets are shown the sender has not sent any weather packets the latest 10 day(s).
| Time | Temp. | Humidity | Pressure | Rain* | Wind** | Luminosity | Snow |
|---|---|---|---|---|---|---|---|
| 1777506562 | 13.33° C | 96% | 1018.3 hPa | - | - | - | - |
| 1777505658 | 13.89° C | 95% | 1018.3 hPa | - | - | - | - |
| 1777505361 | 13.89° C | 96% | 1018.2 hPa | - | - | - | - |
| 1777504457 | 13.89° C | 96% | 1018.3 hPa | - | - | - | - |
| 1777504160 | 13.89° C | 95% | 1018.3 hPa | - | - | - | - |
| 1777503256 | 13.89° C | 96% | 1018.1 hPa | - | - | - | - |
| 1777502959 | 13.89° C | 97% | 1018.1 hPa | - | - | - | - |
| 1777502055 | 13.89° C | 99% | 1018.1 hPa | - | - | - | - |
| 1777500854 | 13.89° C | 97% | 1018 hPa | - | - | - | - |
| 1777500558 | 13.89° C | 98% | 1017.9 hPa | - | - | - | - |
| 1777499653 | 13.89° C | 97% | 1017.8 hPa | - | - | - | - |
| 1777499357 | 13.89° C | 98% | 1017.7 hPa | - | - | - | - |
| 1777498452 | 13.89° C | 98% | 1017.6 hPa | - | - | - | - |
| 1777498156 | 13.89° C | 99% | 1017.6 hPa | - | - | - | - |
| 1777497252 | 13.89° C | 96% | 1017.5 hPa | - | - | - | - |
| 1777496955 | 13.89° C | 95% | 1017.5 hPa | - | - | - | - |
| 1777496051 | 14.44° C | 92% | 1017.4 hPa | - | - | - | - |
| 1777495754 | 14.44° C | 91% | 1017.3 hPa | - | - | - | - |
| 1777494851 | 14.44° C | 90% | 1017.2 hPa | - | - | - | - |
| 1777493650 | 15° C | 88% | 1017.1 hPa | - | - | - | - |
| 1777493353 | 15° C | 87% | 1017.1 hPa | - | - | - | - |
| 1777492448 | 15° C | 86% | 1016.9 hPa | - | - | - | - |
| 1777492152 | 15° C | 86% | 1016.9 hPa | - | - | - | - |
| 1777491247 | 15° C | 82% | 1016.8 hPa | - | - | - | - |
| 1777490951 | 15° C | 83% | 1016.8 hPa | - | - | - | - |
* Rain since midnight (hover to see other rain measurements)
** Current wind speed in m/s (hover to see current wind gust speed)